Temp
16 16 18 18 19 19 23 24 26 25 24 26 26 26 27 28 28 27 20 22 23 22 21 19 19 20 20 20 20 20 20 20 20 20 19 19 19 19 19 19 20 19 19 19 19 19 18 18 19
16 16 17 19 19 18 22 25 23 25 26 26 25 25 26 27 29 26 23 21 22 22 21 20 19 20 20 20 19 20 20 20 20 20 19 19 19 19 19 19 19 19 19 19 19 19 19 18 18
16 17 21 20 21 22 21 24 26 26 25 25 25 25 27 27 28 27 22 20 22 22 21 21 19 19 19 20 20 20 20 19 20 19 19 19 19 19 19 19 19 19 19 19 18 18 18 18 19
17 19 20 20 22 22 24 25 25 24 24 25 27 25 25 25 25 23 21 20 22 22 21 20 19 20 20 20 20 20 19 19 19 19 19 19 19 19 18 19 19 19 19 18 18 18 18 18 18
18 20 20 20 22 24 24 24 25 25 25 25 25 26 25 23 21 20 20 21 22 20 20 19 20 20 20 20 20 20 19 19 19 19 19 19 19 18 19 19 19 19 18 18 18 18 18 17 17
17 19 20 21 22 23 22 21 24 25 26 26 23 26 26 20 20 20 20 21 22 20 20 19 19 19 20 20 20 19 19 19 19 19 19 19 18 19 19 19 18 18 18 18 18 17 17 17 18
16 17 19 22 22 22 21 21 22 24 26 25 26 25 27 23 20 19 20 21 20 19 20 19 19 19 19 20 19 19 19 19 19 19 19 18 19 18 18 19 19 18 17 17 17 17 17 18 18
15 16 18 20 22 22 22 20 22 24 25 26 25 25 26 27 19 19 20 19 18 19 19 19 19 19 19 19 19 19 19 18 18 18 18 17 18 18 18 18 18 18 17 17 16 17 17 18 18
15 14 15 19 20 22 22 19 21 23 25 23 22 26 23 20 18 19 18 18 18 19 19 20 19 19 20 19 18 19 18 18 18 18 18 17 17 17 17 17 17 16 16 17 17 18 17 18 17
13 14 16 18 21 21 21 19 21 20 22 22 21 21 18 19 18 19 19 18 19 19 19 19 19 19 19 18 18 17 17 17 17 17 16 16 17 17 17 16 16 16 16 17 17 17 17 17 17
13 13 17 18 19 20 20 19 21 21 22 23 22 23 20 20 18 19 20 20 20 20 18 19 19 19 18 18 18 17 17 17 16 16 16 16 16 16 16 16 15 14 15 15 15 15 16 16 16
12 13 15 17 18 18 19 20 19 21 22 23 24 24 21 20 19 19 19 20 20 19 18 19 18 18 17 17 17 17 16 16 16 16 15 15 15 15 15 15 15 14 13 14 14 14 13 15 15
11 12 13 15 15 15 18 19 20 20 21 22 23 23 21 21 21 20 19 20 20 18 18 18 18 17 17 17 17 17 16 16 16 16 15 15 15 14 15 14 14 14 14 14 13 12 14 14 14
11 13 13 13 13 14 14 18 19 20 21 21 20 20 22 21 21 20 18 18 19 18 18 18 18 17 17 17 16 16 16 16 16 15 15 14 15 15 14 13 13 13 13 13 12 13 14 14 14
8 10 10 11 12 11 13 14 18 20 20 20 20 20 21 22 22 20 18 18 19 18 17 17 17 17 17 16 16 16 16 16 15 14 14 16 16 14 13 13 13 12 11 13 13 12 12 12 11
8 8 9 10 12 11 11 13 17 19 19 19 20 21 20 21 22 21 19 18 19 17 17 17 17 17 16 16 16 15 15 15 14 13 15 15 14 13 13 12 12 12 12 12 12 12 11 11 12
7 9 10 12 14 14 11 12 15 18 18 19 20 20 20 20 20 21 20 19 19 18 17 17 16 16 16 15 16 16 15 15 15 15 15 15 14 13 13 12 12 12 11 12 11 11 11 10 10
8 8 11 13 12 14 13 12 14 17 18 18 20 20 20 20 20 20 20 19 18 17 17 16 16 16 16 15 15 15 15 15 15 15 15 15 13 12 12 12 12 12 11 11 11 11 11 10 9
7 7 8 9 13 14 14 14 12 16 16 18 19 20 19 20 20 20 20 19 18 17 16 16 15 15 15 15 14 14 13 14 15 15 15 14 14 13 13 12 13 11 11 11 11 10 9 9 9
7 7 8 9 10 8 14 14 16 13 17 18 19 20 20 19 19 20 20 19 17 16 16 15 15 15 15 15 14 13 14 13 14 14 14 14 14 14 13 13 12 11 11 10 10 11 10 9 9
7 7 9 9 9 8 8 12 15 16 16 17 18 20 20 19 19 19 20 19 17 16 15 15 14 14 15 14 14 13 13 12 12 13 14 14 14 14 14 13 13 12 12 11 11 11 11 9 8
7 10 9 10 9 9 9 13 14 16 15 15 16 18 19 19 19 19 19 18 17 15 15 14 14 14 14 14 14 14 12 11 12 13 13 13 13 13 13 13 13 13 12 11 11 11 11 11 10
6 7 10 10 9 9 9 10 16 16 15 16 16 17 17 18 18 18 18 18 16 15 15 14 13 13 13 13 13 13 13 12 12 11 12 13 12 12 12 12 12 12 12 11 12 11 11 11 11
3 5 9 10 10 9 10 10 10 12 11 10 14 16 16 16 17 19 18 17 15 15 14 13 13 13 13 13 13 13 13 12 11 11 11 11 12 12 12 13 13 13 13 12 12 12 11 12 13
2 7 9 9 9 10 11 10 7 5 4 4 5 7 10 14 16 17 18 16 13 13 12 12 12 11 12 12 12 12 12 12 12 11 11 10 11 11 12 12 12 12 11 12 12 11 12 12 12
3 4 8 10 10 11 10 10 5 3 3 3 5 7 9 11 15 16 15 14 11 11 11 11 11 11 11 11 11 12 12 10 10 10 10 11 11 12 12 11 11 11 11 11 11 11 11 11 11
3 6 3 6 8 11 7 6 4 4 3 3 3 4 4 8 13 15 13 11 11 10 10 10 10 10 10 11 11 11 11 11 10 9 9 8 9 10 10 10 8 9 9 11 12 11 10 10 10
2 3 6 7 9 9 6 5 4 3 3 3 2 2 2 3 5 11 11 10 10 9 9 10 10 10 10 10 10 11 11 10 10 10 10 9 8 9 8 8 8 8 8 9 9 9 9 9 9
2 2 3 2 6 9 9 4 2 2 2 2 2 1 1 1 2 3 4 6 8 8 8 8 9 9 9 9 10 10 9 9 9 9 8 9 8 8 8 7 8 6 6 7 8 8 8 8 8
3 1 2 5 5 4 5 3 2 1 1 1 1 1 0 0 0 1 1 2 5 5 6 7 7 8 8 8 9 9 9 8 7 7 8 8 8 7 7 8 7 8 10 8 6 7 6 8 8
Height
789 790 791 795 807 800 782 777 767 774 781 772 773 777 779 775 780 789 777 779 782 787 793 798 802 805 808 811 814 816 818 821 823 825 827 829 831 833 834 835 837 837 838 840 841 842 843 845 846
789 789 795 795 799 804 779 766 776 768 765 769 775 777 779 779 768 772 777 779 782 786 792 798 802 805 809 812 814 817 820 822 824 826 828 831 833 834 836 837 839 840 841 842 844 845 846 848 849
789 788 785 787 779 769 776 763 761 763 767 767 774 776 774 774 771 771 775 777 782 787 792 797 801 806 810 813 815 818 821 823 826 828 829 831 834 836 838 840 841 842 844 845 847 848 850 851 852
787 787 783 772 755 760 757 756 761 767 770 765 764 776 773 771 771 773 775 778 782 788 792 796 801 806 810 814 817 819 821 824 827 828 831 834 837 838 840 842 844 844 846 848 850 852 853 855 856
783 777 769 762 751 749 750 752 757 760 760 763 764 768 770 770 772 774 775 778 782 787 792 796 801 806 810 814 817 820 822 824 827 830 833 835 837 839 842 845 846 848 850 852 854 856 857 859 860
780 767 757 741 747 746 749 757 754 753 752 756 768 761 764 769 770 773 776 779 783 787 792 797 801 807 810 815 818 821 823 825 827 830 834 836 840 841 844 846 850 851 853 855 857 859 860 861 863
767 763 743 738 740 743 747 755 752 750 749 754 751 762 758 765 769 772 776 781 784 789 793 797 803 807 811 815 818 821 824 827 828 832 835 838 842 844 848 850 853 854 856 859 860 861 862 864 866
762 762 750 735 731 735 742 753 749 744 745 749 754 757 757 755 767 772 777 782 785 789 793 797 803 808 813 817 819 822 825 827 830 833 836 839 844 847 850 853 855 857 859 861 862 863 865 867 868
762 756 737 726 733 736 740 752 748 747 743 753 754 748 755 760 766 771 777 783 786 788 792 797 802 808 813 817 820 824 826 829 831 835 838 843 847 851 854 855 856 859 860 862 864 865 868 869 871
749 738 718 732 730 735 740 748 744 752 749 752 754 755 758 761 765 767 771 777 782 785 789 794 800 806 811 815 820 824 827 831 833 836 839 842 845 849 852 855 858 860 862 865 867 870 871 873 874
743 724 731 731 733 730 737 743 740 743 739 740 749 745 754 757 763 766 768 766 771 779 786 791 797 804 808 813 818 821 827 830 834 837 838 842 847 851 856 857 861 863 865 868 871 873 874 875 877
745 735 736 730 728 733 733 734 741 734 732 735 738 741 749 753 759 762 766 768 774 779 783 789 794 800 806 811 816 820 824 828 832 836 840 843 849 853 856 859 863 866 869 871 875 875 877 878 880
739 738 735 732 738 739 733 725 729 728 733 735 737 740 745 748 752 758 764 768 771 777 782 787 792 798 805 810 815 818 823 826 831 837 842 846 850 853 856 860 864 868 872 874 876 877 879 881 883
737 730 734 736 736 739 739 729 724 723 729 732 739 740 741 744 748 755 762 767 769 775 778 783 790 796 803 809 814 818 823 826 831 836 842 845 849 852 856 861 866 869 873 875 877 880 882 884 886
746 737 741 737 737 743 740 734 710 722 724 729 733 736 737 739 744 748 757 763 765 770 777 780 786 793 800 808 812 817 822 827 832 837 840 845 850 853 857 861 865 869 872 875 878 882 884 886 888
748 741 733 730 726 736 746 719 719 719 724 726 728 731 736 737 738 744 751 759 762 768 774 777 783 791 797 805 810 816 821 827 833 837 841 845 849 853 856 861 865 868 873 877 881 884 887 889 891
744 733 725 719 716 722 734 728 720 717 722 721 722 726 731 735 738 741 747 754 759 764 768 774 780 787 796 803 809 816 821 826 832 837 841 846 849 853 856 860 864 869 874 879 882 886 888 891 895
731 728 711 703 714 709 715 724 724 715 718 721 720 723 726 730 733 737 743 750 755 761 766 771 777 783 793 801 808 815 821 826 831 837 841 845 849 852 856 859 864 868 873 878 882 885 890 893 896
743 742 734 720 706 706 704 715 723 716 721 718 717 719 723 726 730 735 739 746 752 758 764 767 774 781 787 795 804 812 816 824 830 835 839 844 848 851 855 859 863 869 873 877 881 885 888 893 897
744 743 732 726 723 731 706 704 706 722 713 714 712 714 719 724 727 731 735 742 747 754 761 763 771 776 784 792 800 809 815 822 828 832 838 842 846 850 853 858 862 867 872 876 879 883 888 893 896
740 736 728 722 726 732 735 715 702 703 712 713 709 709 714 718 723 727 731 737 744 752 757 760 766 772 781 790 795 806 813 820 825 831 836 840 845 849 852 856 861 866 870 873 877 881 884 888 894
732 717 718 720 729 724 726 689 696 697 706 713 713 712 712 718 721 725 729 734 740 747 754 760 765 770 778 783 790 799 807 814 819 825 831 836 842 847 851 855 859 863 868 872 876 880 884 886 890
730 730 711 714 725 727 723 714 676 690 701 703 707 711 714 717 720 723 728 733 739 745 750 757 763 770 776 781 788 793 803 811 817 823 827 833 839 844 848 852 856 860 865 870 873 878 882 886 889
748 736 717 712 715 719 716 719 713 706 717 724 715 711 715 717 719 721 726 733 738 743 748 753 759 766 773 779 785 790 795 805 812 818 823 829 834 839 844 849 853 857 861 866 871 876 881 884 886
750 715 706 714 716 705 707 720 743 756 759 758 751 739 730 722 719 718 721 730 735 740 746 751 755 762 769 777 782 789 794 795 802 810 815 822 827 832 838 844 849 853 858 863 868 873 877 882 885
749 738 712 694 695 696 715 709 752 769 765 760 751 741 734 729 720 718 722 730 735 738 745 748 751 759 768 774 780 785 790 796 799 808 812 816 822 827 834 840 845 850 854 859 864 869 874 879 883
753 737 758 734 720 692 738 749 761 762 763 761 757 749 747 734 722 718 724 728 734 738 741 745 751 757 766 771 777 781 788 793 798 803 811 817 818 822 830 836 841 845 852 855 860 866 871 876 881
771 768 743 730 704 710 746 761 771 771 767 763 760 757 750 744 734 724 724 728 734 738 739 743 748 754 762 768 774 779 784 789 793 796 803 811 812 817 827 833 837 843 849 853 858 863 868 873 876
775 774 771 770 745 715 709 775 788 785 778 772 765 763 758 752 745 739 731 730 734 737 740 742 747 752 759 765 770 776 783 788 793 799 806 809 815 819 824 831 829 842 847 850 855 863 866 871 874
790 789 781 749 755 762 752 782 792 788 784 776 772 769 764 758 748 746 739 736 735 737 740 743 745 750 756 762 767 774 779 786 791 798 803 809 815 820 826 826 840 842 839 848 856 856 864 867 870
Wind_Speed
9 8 7 2 3 3 20 19 13 14 8 8 7 8 12 15 14 4 2 15 24 31 29 28 29 25 26 26 26 24 22 21 20 19 20 20 20 20 19 20 21 23 23 24 23 25 25 25 25
10 10 7 3 8 10 17 23 19 15 7 10 8 7 7 14 12 1 6 18 22 31 29 28 29 27 25 24 25 25 23 22 21 21 21 21 20 20 21 21 23 23 24 25 24 25 26 26 25
10 8 6 6 12 21 17 21 22 16 11 10 7 5 8 6 8 2 4 20 27 30 29 28 31 28 25 24 25 25 24 23 22 21 21 21 21 22 22 22 24 25 26 25 25 26 26 24 25
12 6 4 12 25 22 28 14 16 16 10 9 10 5 5 6 2 2 13 21 31 29 28 29 32 30 28 26 25 25 25 23 22 21 20 21 22 23 24 24 24 28 27 26 26 25 24 24 22
16 4 13 21 29 24 21 20 15 19 16 14 13 16 5 4 5 5 17 25 32 30 28 30 33 31 30 27 26 25 24 24 22 22 22 22 24 25 27 25 28 28 28 27 26 25 24 22 22
9 7 13 25 28 26 21 15 20 21 18 13 9 19 11 5 8 9 19 26 30 30 28 30 32 32 30 28 26 26 25 24 24 23 24 24 25 26 26 29 30 29 28 27 25 24 23 23 22
19 13 26 27 28 26 30 13 20 22 24 19 8 19 14 8 8 13 20 25 29 27 29 30 29 30 31 28 28 27 26 25 25 25 26 26 25 27 26 25 28 31 29 27 27 25 24 24 22
9 7 27 29 25 29 23 17 13 23 22 9 9 13 15 15 14 16 21 24 26 28 27 29 28 28 28 28 28 28 28 28 29 29 29 30 30 29 29 27 27 30 30 29 29 28 26 24 23
18 12 21 34 29 23 18 18 15 8 18 14 12 11 3 9 20 21 23 23 27 27 28 29 28 29 28 26 28 28 28 30 30 29 28 30 26 25 22 24 30 28 27 28 28 29 28 27 25
13 17 35 21 24 18 17 19 20 12 18 16 12 6 5 19 23 26 28 25 31 32 30 31 29 30 28 27 28 26 30 28 29 32 30 30 31 31 34 32 30 26 24 23 27 26 24 23 24
8 31 16 18 17 23 18 17 18 21 26 25 20 20 14 21 22 23 28 39 40 36 31 32 31 30 29 28 30 31 30 30 31 27 31 33 33 34 31 28 24 21 21 22 20 18 20 21 20
22 23 27 13 12 18 25 17 18 22 20 20 22 22 18 19 20 26 25 31 33 30 32 34 31 32 31 30 30 32 31 32 35 32 30 32 25 23 23 21 22 22 16 21 18 18 20 23 24
21 21 15 17 18 9 19 27 26 24 20 7 19 16 20 20 22 28 26 30 34 30 32 35 34 34 32 30 30 32 31 37 37 33 28 22 22 21 24 25 23 17 18 18 18 21 25 26 25
9 15 24 19 16 19 17 25 24 23 19 22 11 19 20 21 23 26 24 27 32 33 34 37 35 36 34 32 34 35 32 35 35 35 23 25 25 28 29 22 18 18 17 18 21 24 27 25 25
12 22 19 19 22 15 10 22 33 16 17 22 18 15 18 22 27 29 29 28 36 31 35 38 38 38 36 37 36 36 35 36 36 24 25 32 30 31 23 21 20 19 21 26 30 25 22 23 22
6 8 9 14 23 14 14 19 25 20 15 21 21 19 15 20 23 31 33 31 36 31 37 38 40 39 39 38 39 37 36 35 35 23 31 32 32 26 24 22 21 23 31 26 22 21 21 22 25
8 8 16 17 19 21 21 3 12 21 18 20 20 19 17 18 21 29 34 33 35 34 37 36 42 44 41 38 40 38 37 36 36 30 34 31 28 26 24 24 25 26 23 21 21 19 21 21 20
6 6 11 23 13 23 25 12 7 16 22 21 19 17 18 19 22 29 34 35 33 32 38 41 41 43 43 39 37 37 37 37 35 34 35 30 28 26 24 25 28 26 24 22 20 22 19 20 22
15 13 15 9 11 19 24 25 14 17 12 21 23 21 17 19 20 29 32 34 32 33 36 37 39 41 45 41 39 34 34 38 37 36 36 31 30 28 28 29 31 26 24 24 24 24 25 21 22
12 14 18 14 4 3 17 22 22 19 18 21 20 22 19 16 18 21 30 33 33 32 35 37 40 46 45 45 38 31 36 36 38 38 36 33 32 32 30 30 29 26 24 25 26 28 23 18 14
13 13 18 13 5 4 4 15 22 26 19 15 20 21 22 19 18 20 25 31 32 31 34 36 43 47 46 39 38 34 34 32 32 37 37 37 34 33 32 31 30 28 27 29 29 26 21 18 13
10 10 16 15 4 3 4 8 23 24 22 19 12 17 21 20 16 19 21 28 32 32 34 38 41 41 41 45 45 45 35 28 31 43 41 40 36 33 32 31 31 30 27 28 28 25 19 20 16
7 15 14 16 12 3 4 4 15 23 22 24 22 16 17 18 17 17 21 26 29 30 35 36 38 37 38 46 42 45 37 35 31 34 41 42 39 32 33 34 32 32 29 28 29 27 22 17 17
14 7 10 12 7 6 4 4 3 4 7 5 11 19 15 16 17 18 24 27 25 27 30 35 38 39 42 40 40 40 38 36 36 40 40 41 42 37 34 36 35 35 32 30 29 28 22 20 19
19 6 6 8 6 5 10 6 6 9 10 10 11 14 12 12 14 16 20 19 21 23 28 31 37 34 39 39 38 35 35 45 47 45 44 42 43 42 40 38 35 34 31 29 29 28 26 23 19
9 6 3 8 9 7 7 4 5 10 12 11 9 9 10 12 13 14 14 18 18 24 29 31 35 33 35 35 35 36 37 33 32 35 34 44 44 46 42 37 37 33 31 30 31 31 27 22 18
8 5 4 4 3 8 2 4 6 17 17 17 15 12 12 12 13 17 13 17 21 26 28 31 32 33 36 35 36 38 36 37 36 35 32 31 37 40 41 37 34 33 31 33 33 30 27 22 19
8 7 0 2 4 4 4 5 8 20 19 18 16 15 13 14 11 6 10 16 18 21 25 32 35 37 37 38 38 37 35 34 35 33 36 35 33 37 35 34 32 31 29 31 32 31 27 23 21
12 5 4 3 4 2 5 3 11 14 14 16 14 12 12 11 10 8 4 11 15 19 23 28 32 35 35 37 37 36 35 33 32 35 39 38 35 30 30 23 22 24 23 27 28 29 26 24 22
18 11 3 4 4 4 2 4 11 12 11 13 13 12 10 9 9 8 7 6 13 15 20 25 30 35 37 36 35 34 34 31 31 32 33 32 31 29 28 26 32 29 25 22 25 27 26 25 22
Wind_Direction
192 163 146 118 204 243 230 228 218 197 189 197 152 190 207 217 195 206 122 174 162 164 166 166 173 168 164 165 157 153 151 151 148 150 146 144 139 137 135 131 129 122 118 118 117 116 117 115 113
176 139 129 200 225 209 228 216 204 204 176 154 174 186 200 222 234 299 145 174 170 164 165 168 175 169 165 165 160 152 157 155 155 150 146 145 141 137 135 134 130 122 120 118 117 119 119 119 117
178 175 189 206 226 224 227 215 228 216 173 158 153 232 219 227 209 246 177 170 165 167 166 169 174 169 163 158 155 157 158 159 156 151 147 146 140 136 134 133 130 125 123 121 120 120 120 119 117
181 190 224 230 222 225 234 215 211 192 191 196 183 189 209 238 158 164 163 166 165 168 167 172 173 167 162 160 158 161 161 159 156 152 148 146 143 137 136 134 132 127 124 123 122 122 120 117 113
198 218 225 231 233 224 227 234 196 198 193 187 187 217 228 189 178 149 166 168 169 169 168 168 171 168 164 161 161 165 161 160 154 151 150 147 142 141 139 139 135 128 126 123 121 118 116 114 111
192 224 225 227 223 215 231 209 209 216 213 202 196 223 224 139 178 172 169 172 174 168 166 166 171 169 164 160 167 165 161 158 152 151 151 146 144 142 143 139 135 129 126 123 118 116 116 115 115
219 210 230 235 226 218 222 197 207 208 216 202 215 213 223 179 164 166 169 172 173 169 166 165 168 169 165 163 169 166 161 158 151 148 146 145 142 138 138 136 138 130 124 119 117 115 117 118 116
216 234 239 233 230 225 216 201 210 213 216 222 200 215 228 205 165 158 164 171 172 170 167 166 169 167 166 167 171 167 163 156 149 144 145 142 140 140 137 138 140 130 126 122 117 117 117 117 117
218 231 227 227 222 222 216 207 197 213 219 202 191 227 84 152 160 157 162 169 174 174 171 169 171 169 170 167 169 167 161 155 150 149 144 132 134 135 135 136 134 133 134 132 128 125 121 116 110
222 225 231 227 231 227 206 212 192 201 210 206 194 175 159 161 167 168 170 171 179 178 176 172 173 169 169 166 164 159 159 148 152 149 139 140 139 140 138 141 140 143 146 144 134 129 127 120 118
231 236 229 228 233 224 228 208 218 215 214 207 200 197 174 170 177 180 184 176 181 179 174 173 171 168 168 163 162 157 157 152 152 148 152 147 140 141 141 143 139 137 133 121 122 119 125 128 131
246 252 240 258 229 208 220 223 216 221 220 213 210 209 179 176 181 187 191 186 178 181 178 173 170 165 165 163 159 158 155 154 159 163 157 149 143 142 146 147 142 136 123 124 118 114 113 118 119
241 242 258 252 249 259 221 224 221 225 225 193 215 193 186 184 189 193 195 187 182 178 179 176 170 166 167 161 163 160 160 164 169 165 156 156 152 151 154 149 143 134 134 130 124 121 122 118 111
266 268 238 244 277 227 242 230 224 222 209 218 192 205 197 189 191 189 191 193 183 182 174 174 168 168 165 170 168 166 163 170 170 163 160 163 161 158 157 146 141 136 136 132 130 128 124 117 110
326 257 259 254 239 255 254 241 231 209 208 209 206 202 205 203 196 191 188 195 187 184 177 172 168 171 171 171 169 169 173 173 171 162 162 167 170 166 153 147 143 141 142 137 134 128 123 118 110
279 266 238 219 248 211 241 240 231 212 204 207 207 212 203 206 202 196 189 192 187 181 175 166 168 170 172 173 175 175 175 174 175 165 167 174 173 163 155 151 148 147 143 140 134 130 121 113 113
195 258 227 239 231 215 211 159 236 206 210 209 211 209 208 205 206 198 195 191 189 185 176 171 169 172 172 171 176 181 179 180 178 173 171 172 173 164 159 156 154 149 147 143 140 132 129 121 111
303 238 259 227 210 219 222 208 209 222 211 220 218 215 212 210 205 202 196 193 192 183 176 173 171 168 172 172 174 178 180 182 180 179 177 175 172 165 161 159 156 154 151 148 143 136 128 124 120
291 301 289 283 229 229 226 218 200 226 215 219 219 216 210 209 203 203 198 192 186 188 178 169 165 163 164 169 168 169 171 181 181 183 181 177 176 169 166 162 162 161 159 155 150 142 137 128 128
259 264 274 277 223 18 228 227 224 224 217 222 216 216 211 207 203 203 196 188 185 185 180 169 169 169 174 176 173 172 177 180 184 184 183 182 178 173 170 167 167 166 162 160 159 154 142 139 154
243 241 249 232 82 150 274 233 215 220 227 222 232 226 217 214 202 200 196 190 185 183 180 175 173 174 180 173 170 174 177 177 178 184 185 186 185 179 177 174 174 174 172 171 169 167 162 154 166
252 228 227 217 224 239 267 203 210 212 209 227 220 224 212 217 209 198 199 194 186 182 175 177 178 175 177 177 179 184 176 174 185 186 188 190 190 187 185 184 183 181 179 177 177 177 174 168 161
261 319 200 185 184 215 239 282 194 208 208 216 226 226 221 221 210 203 201 197 194 176 176 176 176 176 176 182 185 181 178 184 188 185 189 191 192 192 191 190 187 186 184 185 185 182 182 175 173
323 254 206 174 155 226 193 333 58 178 264 319 247 215 224 217 212 211 205 195 190 177 175 176 173 177 183 183 185 182 179 180 182 189 188 190 193 194 197 199 198 194 190 190 190 189 189 189 185
347 188 151 186 190 221 148 173 55 2 355 323 312 298 296 250 216 207 205 184 179 171 177 171 171 176 182 185 186 182 183 188 191 190 188 189 193 196 198 199 199 198 196 194 192 192 196 196 196
310 348 29 165 171 156 184 177 82 7 352 332 335 320 266 263 229 207 195 182 172 170 177 172 172 172 181 185 184 184 188 184 184 188 189 192 195 199 199 199 202 200 198 195 195 195 196 198 201
344 28 351 300 20 149 77 86 190 2 355 353 359 2 352 329 231 218 180 171 185 185 175 172 170 173 181 183 185 189 194 195 193 190 193 192 192 196 199 201 202 199 200 199 199 198 197 198 201
31 339 133 334 146 113 96 60 349 345 344 344 352 353 348 344 339 265 172 167 191 189 174 173 177 180 183 187 193 196 200 202 199 196 203 206 200 198 203 202 200 198 202 199 199 196 196 198 197
10 14 347 283 341 39 141 78 352 341 340 338 346 345 344 342 345 341 9 125 164 174 173 171 175 177 181 190 193 197 198 197 199 200 203 204 208 207 203 201 199 202 196 190 192 196 195 196 197
29 7 342 328 30 48 25 89 358 351 345 347 344 347 346 339 3 348 9 46 135 155 163 169 173 182 188 190 191 194 195 194 191 195 200 203 202 198 195 187 194 191 192 201 198 191 196 199 195